Weather Roundup
Issued by NWS Springfield, MO

Home | Current Version | Previous Version | Text Only | Print | Product List | Glossary On
Versions: 1 2 3 4 5 6 7 8 9 10 11 12 13 14 15 16 17 18 19 20 21 22 23 24 25 26 27 28 29 30 31 32 33 34 35 36 37 38 39 40 41 42 43 44 45 46 47 48 49 50
000
NZUS99 KSGF 190807
HRRSGF

HOURLY WEATHER
NATIONAL WEATHER SERVICE SPRINGFIELD MO
300 AM CDT SUN APR 19 2015

......SGF CWA......

CITY           SKY/WX    TMP DP  RH WIND       PRES   REMARKS
SPRINGFIELD    PTCLDY    50  49  96 CALM      29.76F FOG
JOPLIN         CLOUDY    61  57  87 SW14G21   29.78F
WEST PLAINS    RAIN      59  57  93 CALM      29.75F FOG
ROLLA          CLOUDY    58  55  90 CALM      29.74F
OSAGE BEACH    MOCLDY    55  52  88 CALM      29.76F VSB 3/4
BRANSON        CLEAR     57  57 100 CALM      29.77F

......SURROUNDING SGF CWA......

CITY           SKY/WX    TMP DP  RH WIND       PRES   REMARKS
CHANUTE        CLOUDY    54  53  97 NW8       29.80F
PARSONS        CLOUDY    55  54  96 N9        29.80F
COFFEYVILLE    CLOUDY    55  53  93 N10       29.79F
EMPORIA        CLOUDY    53  52  96 NE6       29.76F
GROVE OK       DRIZZLE   59  59 100 NW10G26   29.81S
ROGERS AR      PTCLDY    57  56  96 CALM      29.77F
SILOAM SPRINGS CLOUDY    59  52  77 NW13      29.81S
HARRISON AR    CLEAR     57  57 100 W5        29.76F
NEAR YELLVILLE MOCLDY    59 N/A N/A CALM      29.73F

......KANSAS AND MISSOURI......

CITY           SKY/WX    TMP DP  RH WIND       PRES   REMARKS
KANSAS CTY INT CLOUDY    58  57  97 CALM      29.76F FOG
DOWNTOWN KC    MOCLDY    60  58  92 CALM      29.75F FOG
COLUMBIA       CLEAR     57  54  89 SE6       29.76F
SEDALIA        FOG       56  54  93 CALM      29.77F VSB 3/4
ST JOSEPH      LGT RAIN  58  58 100 SE7       29.77F FOG
ST LOUIS       MOCLDY    64  55  72 CALM      29.77F
SPIRIT OF STL  MOCLDY    58  55  90 CALM      29.75F
KIRKSVILLE     MOCLDY    58  56  93 SE6       29.78F
WICHITA        CLOUDY    53  50  89 S3        29.75R
TOPEKA         LGT RAIN  57  53  86 SW9       29.80S
OLATHE         CLOUDY    58  57  97 CALM      29.75F

......TENNESSEE......

CITY           SKY/WX    TMP DP  RH WIND       PRES   REMARKS
MEMPHIS        LGT RAIN  66  62  87 SE3       29.71F
NASHVILLE      LGT RAIN  65  63  93 CALM      29.78F

......ARKANSAS.......

CITY           SKY/WX    TMP DP  RH WIND       PRES   REMARKS
FAYETTEVILLE   MOCLDY    54  54 100 CALM      29.77F
FT SMITH       MOCLDY    61  57  87 W8        29.75F
LITTLE ROCK    LGT RAIN  65  62  90 NW3       29.73F FOG

......OKLAHOMA.......

CITY           SKY/WX    TMP DP  RH WIND       PRES   REMARKS
TULSA          CLOUDY    56  55  97 N8        29.75F
PONCA CITY     CLOUDY    55  50  83 E6        29.75F
MCALESTER      CLOUDY    61  53  75 CALM      29.76F
OKLAHOMA CITY  CLOUDY    59  49  69 E8        29.75F

......IOWA............

CITY           SKY/WX    TMP DP  RH WIND       PRES   REMARKS
DES MOINES     CLOUDY    58  56  93 S3        29.78F
QUAD CITIES    MOCLDY    53  37  54 E10       29.83F

......ILLINOIS........

CITY           SKY/WX    TMP DP  RH WIND       PRES   REMARKS
QUINCY         CLOUDY    60  55  83 E7        29.78F
CHICAGO        CLOUDY    55  25  31 E10G23    29.91F




USA.gov is the U.S. government's official web portal to all federal, state and local government web resources and services.